Location: Unspecified
(0.0000°N, 0.0000°E)
Time: 11:19:29
(UTC+00:00)

JUGNU - Pass Details

Date: 20 February 2020
Orbit: 836 x 864 km, 20.0° (Epoch: 01 April)

Event Time Altitude Azimuth Distance (km) Brightness Sun altitude
Exits shadow 03:43:16 11° 173° (S) 2,424 ? -36.8°
Drops below altitude 10° 03:44:36 10° 160° (SSE) 2,482 ? -36.5°
Sets 03:49:39 0° 124° (SE) 3,424 ? -35.3°
